{"data":{"norad_id":59912,"epoch":"2026-05-25T01:41:14.040096Z","epoch_age_seconds":59113,"freshness":"FRESH","line1":"1 59912U 24102D   26145.07030139  .00000087  00000+0  14762-3 0  9993","line2":"2 59912  44.9802   4.5340 0011177 139.6343 220.5320 13.99158821101662","mean_motion":13.99158821,"eccentricity":0.0011177,"inclination_deg":44.9802,"raan_deg":4.534,"arg_perigee_deg":139.6343,"mean_anomaly_deg":220.532,"bstar":0.00014762,"rev_number":10166,"period_min":102.91898091818,"perigee_km":888.57835958034,"apogee_km":904.84055134688,"semimajor_km":7274.8464554636,"source":"CELESTRAK","updated_at":"2026-05-25T13:38:01.746532Z"}}